#timestamp,LO_Frequency,Hit,StdDev 
1599199215.6,286046999.8,N
1599199235.4,286047003.7,N
1599199255.2,286047001.4,N
1599199275.1,286047003.6,N
1599199276.0,286047003.6,N
1599199295.8,286047004.4,N
1599199315.6,286047002.2,N
1599199335.5,286047004.2,N
1599199355.3,286047002.0,N
1599199375.2,286046998.5,N
1599199395.9,286047002.4,N
1599199415.7,286047001.3,N
1599199435.6,286047002.5,N
1599199455.4,286047002.3,N
1599199475.2,286047003.8,N
1599199495.1,286047001.7,N
1599199496.0,286047001.7,N
1599199515.8,286047001.4,N
1599199535.7,286047001.9,N
1599199555.5,286047000.4,N
1599199575.3,286046999.9,N
1599199595.2,286047000.3,N
1599199615.0,286047002.4,N
1599199615.9,286047002.4,N
1599199635.7,286047002.3,N
1599199655.6,286047001.5,N
1599199675.4,286047001.8,N
1599199695.3,286047004.0,N
1599199715.1,286047002.0,N
1599199735.8,286047001.9,N
1599199755.7,286047003.8,N
1599199775.5,286047002.1,N
1599199795.4,286047000.0,N
1599199815.2,286047002.3,N
1599199835.0,286047002.5,N
1599199835.9,286047002.5,N
1599199855.8,286047002.1,N
1599199875.6,286047001.2,N
1599199895.4,286047000.3,N
1599199915.3,286047002.0,N
1599199935.1,286047001.5,N
1599199955.9,286047002.0,N
1599199975.7,286047003.1,Y
1599199995.5,286047000.1,P
1599200015.4,286047001.8,N
1599200035.2,286047003.1,P
1599200055.1,286047002.5,N
1599200056.0,286047002.5,N
1599200075.8,286046998.8,N
1599200095.6,286046996.7,N
1599200115.5,286046997.2,N
1599200135.3,286046999.1,N
1599200155.1,286046997.2,N
1599200175.9,286046997.0,N
1599200195.7,286046998.6,N
1599200215.6,286047001.2,N
1599200235.4,286047001.0,N
1599200255.2,286047002.6,N
1599200275.1,286047002.9,N
1599200276.0,286047002.9,N
1599200295.8,286047003.8,N
1599200315.6,286047001.3,N
1599200335.5,286047002.4,N
1599200355.3,286047002.7,N
1599200375.2,286046999.8,N
1599200395.9,286047001.4,N
1599200415.7,286047001.8,N
1599200435.6,286047002.7,N
1599200455.4,286047000.8,N
1599200475.2,286047001.0,N
1599200495.1,286046998.2,N
1599200496.0,286046998.2,N
1599200515.8,286046996.7,N
1599200535.7,286046997.9,N
1599200555.5,286046997.7,N
1599200575.3,286046997.0,N
1599200595.2,286046999.6,N
1599200615.9,286046998.4,N
1599200635.7,286047000.7,N
1599200655.6,286046999.3,N
1599200675.4,286046999.3,N
1599200695.3,286046996.8,N
1599200715.1,286046998.4,N
1599200716.0,286046998.4,N
1599200735.8,286046997.1,N
1599200755.7,286046996.0,N
1599200775.5,286046993.7,N
1599200795.3,286046995.7,N
1599200815.2,286046994.9,N
1599200835.0,286046997.8,N
1599200835.9,286046997.8,N
1599200855.8,286046998.1,N
1599200875.6,286046998.2,N
1599200895.4,286046996.5,N
1599200915.3,286046996.8,N
1599200935.1,286046998.8,N
1599200955.8,286046999.4,N
1599200975.7,286046996.7,N
1599200995.5,286046998.3,N
1599201015.4,286047001.0,N
1599201035.2,286047000.6,N
1599201055.0,286046998.5,N
1599201055.9,286046998.5,N
1599201075.8,286046997.2,N
1599201095.1,286046995.0,Y
1599201096.0,286046995.0,P
1599201115.8,286047000.3,N
1599201135.6,286047003.1,N
1599201155.5,286047002.5,N
1599201175.4,286047000.0,N
1599201195.2,286047002.6,N
1599201215.0,286047000.1,N
1599201215.9,286047000.1,N
1599201235.8,286046999.3,N
1599201255.6,286047001.0,N
1599201275.5,286047002.1,N
1599201295.3,286047002.0,N
1599201315.1,286047001.5,N
1599201335.9,286047000.3,N
1599201355.7,286046997.0,N
1599201375.6,286046997.7,N
1599201395.4,286046998.9,N
1599201415.2,286046998.8,N
1599201435.1,286046998.2,N
1599201436.0,286046998.2,N
1599201455.8,286047001.0,N
1599201475.6,286046998.8,N
1599201495.5,286046997.4,N
1599201515.3,286046996.0,N
1599201535.2,286046997.9,N
1599201555.9,286046996.9,N
1599201575.7,286046997.8,N
1599201595.6,286046997.1,N
1599201615.4,286046995.6,N
1599201635.3,286046996.2,N
1599201655.1,286046996.1,N
1599201656.0,286046996.1,N
1599201675.8,286046995.1,N
1599201695.7,286046995.9,N
1599201715.5,286046995.0,N
1599201735.4,286046997.5,N
1599201755.2,286046995.4,N
1599201775.0,286046997.1,N
1599201775.9,286046997.1,N
1599201795.8,286046996.7,N
1599201815.6,286046997.9,N
1599201835.4,286046997.5,N
1599201855.3,286046997.0,N
1599201875.1,286046999.5,N
1599201895.9,286046999.5,N
1599201915.7,286046996.8,N
1599201935.5,286046998.4,N
1599201955.4,286046997.0,N
1599201975.2,286046995.2,Y
1599201995.1,286046998.6,P
1599201996.0,286047011.9,P
1599202015.8,286046999.4,N
1599202035.6,286047000.2,N
1599202055.5,286047002.2,N
1599202075.3,286047001.0,N
1599202095.2,286046998.8,N
1599202115.9,286047001.2,N
1599202135.7,286047004.2,N
1599202155.6,286047004.0,N
1599202175.4,286047005.7,N
1599202195.2,286047002.9,N
1599202245.1,286047005.5,E
1599202255.0,286047002.7,N
1599202255.9,286047002.7,P
1599202275.8,286046996.0,P
1599202295.6,286046997.4,N
1599202315.4,286046998.8,N
1599202335.3,286046998.5,N
1599202355.1,286046999.5,N
1599202375.9,286047000.9,N
1599202395.7,286046999.5,N
1599202415.5,286046995.8,N
1599202435.4,286046996.6,N
1599202485.2,286046995.2,E
1599202495.2,286046997.5,N
1599202515.0,286047002.1,P
1599202515.9,286047002.1,N
1599202535.7,286047003.9,N
1599202555.6,286047005.6,N
1599202575.4,286047003.2,N
1599202595.3,286047003.4,N
1599202615.1,286047001.9,N
1599202616.0,286047001.9,N
1599202635.8,286047000.1,N
1599202655.7,286047002.3,N
1599202675.5,286047004.2,N
1599202695.3,286047003.1,N
1599202715.2,286047005.1,N
1599202735.0,286047006.0,Y
1599202735.9,286047006.0,P
1599202755.8,286047002.8,N
1599202775.6,286046998.1,N
1599202795.4,286047000.6,N
